Location: Lane
(33.5226°N, 79.8788°W)
Time: 07:53:05
(UTC+00:00)

SR - Pass Details

Date: 03 October 2022
Orbit: 577 x 875 km, 66.7° (Epoch: 27 November)

Event Time Altitude Azimuth Distance (km) Brightness Sun altitude
Rises 03:14:55 0° 252° (WSW) 3,427 - -50.3°
Reaches altitude 10° 03:18:20 10° 272° (W) 2,515 - -50.8°
Maximum altitude 03:21:58 17° 310° (NW) 2,090 - -51.4°
Drops below altitude 10° 03:25:37 10° 349° (N) 2,523 - -51.9°
Sets 03:29:06 0° 10° (N) 3,444 - -52.4°
